1508432400.67,43084,17.56,73900.0,1.35,-32.29,-34.07,0,*7B
1508432401.89,43085,17.56,73902.5,1.35,-32.29,-34.07,0,*7A
1508432403.11,43086,17.56,73900.0,1.35,-32.63,-34.25,0,*77
1508432404.35,43087,17.56,73900.0,1.35,-32.45,-34.19,0,*7D
1508432405.57,43088,17.56,73902.0,1.37,-32.39,-34.13,0,*71
1508432406.79,43089,17.56,73902.3,1.35,-32.63,-34.41,0,*7A
1508432408.01,43090,17.56,73902.3,1.35,-32.75,-34.41,0,*75
1508432409.23,43091,17.56,73902.0,1.35,-32.57,-34.19,0,*79
1508432410.44,43092,17.56,73902.8,1.35,-32.45,-34.25,0,*76
1508432411.68,43093,17.56,73900.0,1.35,-32.45,-34.19,0,*78
1508432412.91,43094,17.56,73906.0,1.37,-32.39,-34.13,0,*7C
1508432414.15,43095,17.56,73900.5,1.37,-32.35,-34.01,0,*72
1508432415.4,43096,17.56,73896.0,1.35,-32.29,-34.01,0,*7E
1508432416.62,43097,17.5,73898.3,1.37,-32.35,-34.13,0,*73
1508432417.83,43098,17.56,73902.0,1.35,-32.45,-34.25,0,*7C
1508432419.03,43099,17.56,73898.8,1.35,-32.57,-34.25,0,*7E
1508432420.24,43100,17.56,73896.5,1.35,-32.63,-34.25,0,*78
1508432421.43,43101,17.56,73896.0,1.35,-32.57,-34.25,0,*7E
1508432422.68,43102,17.56,73902.8,1.37,-32.39,-34.19,0,*78
1508432423.91,43103,17.56,73900.0,1.35,-32.79,-34.47,0,*74
1508432425.15,43104,17.56,73900.0,1.35,-32.75,-34.35,0,*7A
1508432426.37,43105,17.5,73898.5,1.35,-32.63,-34.41,0,*7F
1508432427.57,43106,17.56,73900.3,1.35,-32.91,-34.59,0,*78
1508432428.76,43107,17.5,73896.3,1.35,-33.03,-34.71,0,*79
1508432430.01,43108,17.56,73898.5,1.33,-33.21,-34.83,0,*7D
1508432431.23,43109,17.56,73900.8,1.33,-33.03,-34.71,0,*71
1508432432.48,43110,17.56,73900.5,1.33,-32.79,-34.41,0,*76
1508432433.75,43111,17.56,73904.0,1.33,-32.97,-34.53,0,*74
1508432435.01,43112,17.56,73902.5,1.33,-32.85,-34.47,0,*71
1508432436.24,43113,17.56,73902.5,1.31,-33.03,-34.65,0,*7D
1508432437.5,43114,17.56,73902.5,1.31,-32.85,-34.65,0,*75
1508432438.7,43115,17.56,73900.8,1.31,-33.03,-34.71,0,*7E
1508432439.93,43116,17.5,73900.0,1.31,-32.97,-34.71,0,*71
1508432441.16,43117,17.5,73902.8,1.31,-32.85,-34.47,0,*76
1508432442.37,43118,17.56,73902.5,1.31,-32.69,-34.47,0,*7B
1508432443.62,43119,17.56,73900.0,1.31,-32.63,-34.31,0,*71
1508432444.87,43120,17.56,73902.5,1.31,-32.85,-34.53,0,*77
1508432446.13,43121,17.56,73902.3,1.31,-32.85,-34.53,0,*76
1508432447.38,43122,17.56,73904.0,1.31,-32.79,-34.31,0,*72
1508432448.6,43123,17.56,73900.8,1.31,-32.79,-34.41,0,*74
1508432449.8,43124,17.56,73902.8,1.27,-33.03,-34.71,0,*7B
1508432451.03,43125,17.5,73896.8,1.31,-33.03,-34.65,0,*78
1508432452.26,43126,17.56,73900.0,1.29,-32.91,-34.71,0,*7D
1508432453.53,43127,17.56,73898.5,1.29,-32.85,-34.53,0,*79
1508432454.78,43128,17.56,73898.3,1.29,-32.91,-34.53,0,*73
1508432456.04,43129,17.5,73900.0,1.29,-33.09,-34.77,0,*74
1508432457.26,43130,17.56,73900.3,1.27,-32.91,-34.53,0,*74
1508432458.52,43131,17.56,73900.5,1.27,-32.75,-34.53,0,*7F
1508432459.78,43132,17.56,73900.5,1.27,-32.75,-34.53,0,*7C
1508432461.0,43133,17.56,73902.0,1.27,-32.91,-34.53,0,*77
1508432462.28,43134,17.56,73902.3,1.29,-32.75,-34.53,0,*74
1508432463.54,43135,17.56,73902.0,1.27,-32.75,-34.53,0,*7B
1508432464.76,43136,17.5,73896.5,1.27,-32.91,-34.53,0,*72
1508432466.01,43137,17.56,73900.5,1.29,-32.91,-34.53,0,*7D
1508432467.27,43138,17.56,73896.5,1.27,-32.85,-34.53,0,*79
1508432468.51,43139,17.56,73898.3,1.25,-32.97,-34.59,0,*73
1508432469.79,43140,17.56,73896.5,1.25,-32.79,-34.53,0,*77
1508432471.05,43141,17.56,73894.5,1.25,-32.79,-34.59,0,*7C
1508432472.3,43142,17.56,73896.0,1.25,-32.91,-34.65,0,*76
1508432473.55,43143,17.56,73896.0,1.25,-32.91,-34.53,0,*72
1508432474.8,43144,17.56,73898.0,1.25,-32.79,-34.59,0,*79
1508432476.02,43145,17.5,73892.5,1.25,-32.91,-34.59,0,*7E
1508432477.3,43146,17.56,73896.3,1.25,-32.97,-34.65,0,*74
1508432478.55,43147,17.56,73898.0,1.25,-32.75,-34.59,0,*76
1508432479.81,43148,17.56,73896.0,1.23,-32.75,-34.53,0,*75
1508432481.05,43149,17.56,73896.8,1.25,-32.63,-34.41,0,*76
1508432482.3,43150,17.56,73896.3,1.25,-32.57,-34.35,0,*7A
1508432483.58,43151,17.5,73896.5,1.25,-32.79,-34.53,0,*77
1508432484.86,43152,17.56,73900.5,1.25,-32.75,-34.53,0,*78
1508432486.11,43153,17.56,73898.5,1.25,-32.57,-34.35,0,*79
1508432487.35,43154,17.56,73902.0,1.25,-32.57,-34.19,0,*70
1508432488.57,43155,17.5,73898.3,1.25,-32.39,-34.07,0,*76
1508432489.81,43156,17.56,73902.8,1.23,-32.39,-34.01,0,*75
1508432491.05,43157,17.5,73902.3,1.25,-32.39,-34.19,0,*7B
1508432492.3,43158,17.56,73900.5,1.25,-32.79,-34.41,0,*7D
1508432493.54,43159,17.56,73900.0,1.25,-32.39,-34.19,0,*75
1508432494.79,43160,17.5,73896.8,1.25,-32.39,-34.19,0,*7F
1508432496.0,43161,17.5,73900.3,1.25,-32.57,-34.25,0,*79
1508432497.25,43162,17.56,73902.0,1.25,-32.57,-34.35,0,*7B
1508432498.49,43163,17.56,73900.0,1.25,-32.63,-34.41,0,*7E
1508432499.76,43164,17.5,73900.0,1.25,-32.45,-34.19,0,*70
1508432501.01,43165,17.56,73900.8,1.25,-32.57,-34.35,0,*7C
1508432502.22,43166,17.5,73900.0,1.25,-32.57,-34.25,0,*7E
1508432503.47,43167,17.56,73906.5,1.25,-32.63,-34.41,0,*7A
1508432504.73,43168,17.5,73906.0,1.25,-32.45,-34.19,0,*7C
1508432505.98,43169,17.56,73904.0,1.25,-32.39,-34.19,0,*76
1508432507.22,43170,17.56,73904.0,1.25,-32.39,-34.19,0,*7E
1508432508.44,43171,17.56,73902.3,1.25,-32.39,-34.25,0,*70
1508432509.68,43172,17.5,73902.0,1.25,-32.29,-34.07,0,*72
1508432510.91,43173,17.5,73898.3,1.25,-32.39,-34.07,0,*72
1508432512.13,43174,17.56,73900.8,1.23,-32.29,-34.07,0,*72
1508432513.33,43175,17.5,73896.5,1.27,-32.23,-33.95,0,*71
1508432514.53,43176,17.56,73900.3,1.27,-32.39,-34.13,0,*70
1508432515.75,43177,17.5,73896.3,1.27,-32.35,-34.01,0,*7E
1508432516.94,43178,17.5,73898.3,1.27,-32.23,-33.95,0,*7C
1508432518.17,43179,17.56,73898.0,1.27,-32.19,-33.95,0,*74
1508432519.37,43180,17.56,73898.3,1.27,-32.13,-33.83,0,*7F
1508432520.59,43181,17.5,73898.5,1.27,-32.19,-33.83,0,*74
1508432521.84,43182,17.56,73900.3,1.29,-32.23,-34.01,0,*7D
1508432523.07,43183,17.5,73898.0,1.27,-32.35,-34.01,0,*75
1508432524.29,43184,17.5,73898.0,1.27,-32.13,-33.77,0,*70
1508432525.52,43185,17.5,73900.8,1.29,-32.13,-33.67,0,*7E
1508432526.72,43186,17.5,73900.3,1.27,-32.13,-33.83,0,*79
1508432527.94,43187,17.5,73902.3,1.27,-32.19,-33.95,0,*75
1508432529.19,43188,17.56,73900.0,1.29,-32.23,-34.01,0,*77
1508432530.44,43189,17.5,73900.0,1.29,-32.19,-33.83,0,*72
1508432531.69,43190,17.5,73898.5,1.29,-32.19,-33.95,0,*7D
1508432532.91,43191,17.5,73898.8,1.29,-32.35,-34.13,0,*7B
1508432534.13,43192,17.5,73896.3,1.29,-32.35,-34.13,0,*78
1508432535.32,43193,17.5,73898.5,1.27,-32.35,-34.13,0,*77
1508432536.57,43194,17.5,73898.8,1.29,-32.39,-34.31,0,*72
1508432537.78,43195,17.5,73898.8,1.29,-32.35,-34.13,0,*7F
1508432539.03,43196,17.5,73898.8,1.29,-32.23,-34.01,0,*78
1508432540.25,43197,17.5,73896.8,1.29,-32.23,-33.95,0,*73
1508432541.51,43198,17.5,73898.5,1.29,-31.95,-33.67,0,*7F
1508432542.74,43199,17.5,73896.0,1.29,-32.01,-33.83,0,*7A
1508432543.99,43200,17.5,73898.3,1.29,-32.39,-34.01,0,*7F
1508432545.22,43201,17.5,73900.8,1.31,-31.91,-33.55,0,*70
1508432546.45,43202,17.5,73898.8,1.31,-31.79,-33.43,0,*72
1508432547.68,43203,17.5,73896.8,1.31,-31.73,-33.55,0,*7E
1508432548.87,43204,17.5,73902.8,1.31,-32.35,-34.07,0,*78
1508432550.07,43205,17.5,73900.0,1.31,-32.35,-33.95,0,*75
1508432551.32,43206,17.5,73902.5,1.31,-31.95,-33.77,0,*73
1508432552.55,43207,17.5,73902.5,1.31,-32.19,-34.07,0,*75
1508432553.76,43208,17.5,73900.3,1.33,-32.35,-34.07,0,*76
1508432554.99,43209,17.5,73902.5,1.31,-32.13,-33.89,0,*70
1508432556.21,43210,17.5,73896.5,1.31,-31.79,-33.61,0,*71
1508432557.48,43211,17.5,73900.8,1.33,-31.91,-33.61,0,*74
1508432558.76,43212,17.56,73900.3,1.33,-31.91,-33.61,0,*77
1508432560.03,43213,17.5,73896.0,1.33,-32.07,-33.73,0,*79
1508432561.31,43214,17.5,73902.0,1.33,-31.95,-33.73,0,*76
1508432562.54,43215,17.5,73892.3,1.33,-31.79,-33.55,0,*71
1508432563.79,43216,17.5,73896.8,1.33,-31.79,-33.77,0,*72
1508432565.07,43217,17.5,73896.0,1.33,-31.73,-33.43,0,*7E
1508432566.35,43218,17.56,73902.3,1.37,-31.61,-33.27,0,*74
1508432567.58,43219,17.5,73900.0,1.35,-31.85,-33.55,0,*78
1508432568.83,43220,17.56,73902.3,1.35,-31.73,-33.49,0,*76
1508432570.03,43221,17.56,73902.5,1.35,-31.67,-33.37,0,*7B
1508432571.28,43222,17.5,73896.5,1.37,-31.67,-33.49,0,*73
1508432572.53,43223,17.5,73896.5,1.37,-31.95,-33.83,0,*79
1508432573.81,43224,17.5,73896.8,1.37,-31.95,-33.77,0,*75
1508432575.06,43225,17.56,73900.3,1.37,-32.01,-33.77,0,*7A
1508432576.29,43226,17.5,73898.3,1.37,-32.01,-33.95,0,*75
1508432577.55,43227,17.5,73898.8,1.37,-31.95,-33.67,0,*77
1508432578.77,43228,17.5,73896.3,1.37,-32.01,-33.83,0,*7C
1508432580.02,43229,17.5,73896.0,1.37,-32.23,-34.01,0,*70
1508432581.25,43230,17.5,73896.0,1.39,-32.35,-34.01,0,*71
1508432582.48,43231,17.5,73902.8,1.39,-32.23,-34.01,0,*77
1508432583.7,43232,17.5,73902.0,1.37,-32.01,-33.95,0,*70
1508432584.92,43233,17.56,73904.8,1.37,-32.23,-33.95,0,*71
1508432586.17,43234,17.5,73904.0,1.37,-32.39,-34.31,0,*74
1508432587.42,43235,17.5,73906.5,1.37,-32.57,-34.31,0,*7D
1508432588.66,43236,17.5,73902.5,1.37,-32.19,-33.95,0,*7D
1508432589.89,43237,17.5,73902.3,1.39,-32.35,-34.01,0,*76
1508432591.11,43238,17.5,73900.3,1.37,-32.35,-34.13,0,*74
1508432592.33,43239,17.5,73898.8,1.35,-32.13,-34.01,0,*70
1508432593.61,43240,17.5,73892.3,1.37,-31.85,-33.77,0,*76
1508432594.86,43241,17.5,73896.5,1.37,-32.07,-33.95,0,*72
1508432596.11,43242,17.5,73898.3,1.37,-32.07,-33.83,0,*76
1508432597.39,43243,17.5,73898.0,1.37,-32.07,-34.01,0,*7A
1508432598.59,43244,17.5,73902.0,1.39,-32.23,-34.13,0,*76
1508432599.79,43245,17.5,73900.0,1.39,-32.23,-34.13,0,*77
1508432601.01,43246,17.5,73902.0,1.39,-32.35,-34.19,0,*79
1508432602.24,43247,17.5,73898.0,1.39,-32.07,-33.83,0,*7D
1508432603.47,43248,17.5,73898.8,1.37,-32.01,-33.95,0,*7D
1508432604.7,43249,17.5,73900.3,1.35,-32.13,-34.01,0,*77
1508432605.94,43250,17.5,73902.3,1.35,-32.29,-34.01,0,*76
1508432607.19,43251,17.5,73896.8,1.37,-32.07,-33.83,0,*74
1508432608.47,43252,17.5,73898.5,1.37,-32.07,-33.77,0,*7C
1508432609.72,43253,17.5,73894.0,1.37,-32.07,-33.83,0,*76
1508432611.0,43254,17.5,73896.0,1.37,-32.19,-34.01,0,*73
1508432612.25,43255,17.5,73900.0,1.37,-32.23,-34.01,0,*7B
1508432613.48,43256,17.5,73898.0,1.39,-32.19,-34.13,0,*7C
1508432614.71,43257,17.5,73898.3,1.39,-32.07,-33.83,0,*7C
1508432615.94,43258,17.5,73894.5,1.39,-32.07,-33.95,0,*74
1508432617.17,43259,17.5,73898.3,1.39,-32.19,-33.83,0,*7D
1508432618.4,43260,17.5,73898.5,1.39,-32.07,-33.83,0,*78
1508432619.63,43261,17.5,73902.8,1.39,-32.19,-33.95,0,*71
1508432620.86,43262,17.5,73900.3,1.39,-31.95,-33.83,0,*72
1508432622.09,43263,17.5,73902.0,1.39,-32.07,-33.83,0,*7B
1508432623.33,43264,17.5,73898.5,1.39,-31.79,-33.43,0,*7A
1508432624.56,43265,17.5,73896.5,1.39,-31.79,-33.43,0,*7B
1508432625.82,43266,17.5,73898.0,1.43,-31.61,-33.37,0,*7F
1508432627.11,43267,17.5,73896.8,1.43,-31.73,-33.43,0,*7E
1508432628.36,43268,17.5,73900.3,1.39,-31.85,-33.61,0,*75
1508432629.65,43269,17.5,73898.0,1.43,-31.73,-33.43,0,*70
1508432630.93,43270,17.5,73898.5,1.43,-31.91,-33.61,0,*74
1508432632.21,43271,17.5,73898.8,1.43,-31.91,-33.73,0,*76
1508432633.47,43272,17.5,73894.8,1.43,-31.61,-33.37,0,*7A
1508432634.7,43273,17.5,73898.0,1.45,-31.73,-33.55,0,*7A
1508432635.92,43274,17.5,73894.3,1.47,-31.67,-33.55,0,*7A
1508432637.18,43275,17.5,73900.3,1.47,-31.73,-33.55,0,*7E
1508432638.41,43276,17.5,73896.5,1.45,-32.01,-33.89,0,*78
1508432639.69,43277,17.5,73898.0,1.47,-31.73,-33.49,0,*71
1508432640.95,43278,17.5,73896.0,1.47,-31.73,-33.67,0,*72
1508432642.24,43279,17.5,73898.0,1.47,-31.95,-33.77,0,*7A
1508432643.5,43280,17.5,73902.8,1.45,-31.95,-33.73,0,*7A
1508432644.73,43281,17.5,73898.5,1.45,-32.01,-33.77,0,*71
1508432645.98,43282,17.5,73902.8,1.45,-31.91,-33.73,0,*7C
1508432647.24,43283,17.5,73900.5,1.47,-31.95,-33.67,0,*7E
1508432648.48,43284,17.5,73902.0,1.45,-32.01,-33.73,0,*70
1508432649.74,43285,17.5,73898.5,1.47,-31.85,-33.67,0,*79
1508432651.0,43286,17.5,73898.5,1.47,-31.91,-33.67,0,*7F
1508432652.25,43287,17.5,73902.0,1.47,-31.85,-33.55,0,*7A
1508432653.48,43288,17.5,73896.3,1.49,-31.91,-33.67,0,*7F
1508432654.71,43289,17.5,73896.8,1.49,-31.85,-33.67,0,*7B
1508432655.94,43290,17.5,73896.0,1.49,-31.73,-33.55,0,*7B
1508432657.19,43291,17.5,73902.5,1.49,-31.85,-33.73,0,*77
1508432658.45,43292,17.5,73898.5,1.49,-31.85,-33.49,0,*7D
1508432659.7,43293,17.5,73898.5,1.49,-31.73,-33.49,0,*75
1508432660.96,43294,17.5,73898.5,1.51,-31.79,-33.49,0,*71
1508432662.21,43295,17.5,73896.0,1.51,-31.79,-33.49,0,*70
1508432663.44,43296,17.5,73902.3,1.49,-31.67,-33.49,0,*75
1508432664.72,43297,17.5,73898.3,1.51,-31.61,-33.31,0,*74
1508432666.0,43298,17.5,73898.0,1.51,-31.61,-33.31,0,*7B
1508432667.23,43299,17.5,73898.5,1.49,-31.51,-33.37,0,*76
1508432668.46,43300,17.5,73900.0,1.51,-31.79,-33.67,0,*71
1508432669.72,43301,17.5,73902.5,1.51,-31.79,-33.49,0,*7C
1508432670.97,43302,17.5,73896.3,1.51,-31.67,-33.49,0,*70
1508432672.22,43303,17.5,73900.5,1.51,-31.91,-33.55,0,*75
1508432673.42,43304,17.5,73898.3,1.53,-31.79,-33.55,0,*76
1508432674.65,43305,17.5,73894.3,1.53,-31.79,-33.61,0,*70
1508432675.9,43306,17.5,73898.0,1.53,-31.85,-33.61,0,*70
1508432677.15,43307,17.5,73896.5,1.53,-31.85,-33.73,0,*72
1508432678.38,43308,17.5,73902.5,1.53,-31.79,-33.61,0,*7D
1508432679.65,43309,17.5,73898.5,1.55,-31.85,-33.61,0,*79
1508432680.89,43310,17.5,73902.3,1.53,-32.01,-33.77,0,*7F
1508432682.17,43311,17.5,73902.3,1.55,-31.95,-33.73,0,*72
1508432683.42,43312,17.5,73896.8,1.53,-31.95,-33.77,0,*73
1508432684.68,43313,17.5,73896.3,1.53,-31.95,-33.73,0,*76
1508432685.96,43314,17.5,73900.5,1.55,-31.95,-33.77,0,*73
1508432687.24,43315,17.5,73898.8,1.55,-31.95,-33.77,0,*72
1508432688.5,43316,17.5,73904.5,1.53,-31.95,-33.73,0,*73
1508432689.7,43317,17.5,73902.5,1.53,-32.13,-33.95,0,*77
1508432690.94,43318,17.5,73906.0,1.53,-32.45,-34.19,0,*78
1508432692.18,43319,17.5,73904.3,1.55,-32.35,-34.19,0,*78
1508432693.41,43320,17.5,73904.5,1.53,-31.95,-33.95,0,*7E
1508432694.61,43321,17.5,73900.8,1.53,-32.13,-34.07,0,*7E
1508432695.84,43322,17.5,73902.8,1.53,-32.01,-33.89,0,*7F
1508432697.09,43323,17.5,73904.5,1.57,-31.95,-33.89,0,*74
1508432698.29,43324,17.5,73906.0,1.53,-32.01,-33.95,0,*74
1508432699.52,43325,17.5,73906.5,1.53,-32.19,-33.95,0,*7C
1508432700.71,43326,17.5,73906.8,1.53,-32.35,-34.13,0,*78
1508432701.94,43327,17.5,73906.3,1.55,-32.13,-33.95,0,*72
1508432703.16,43328,17.5,73904.0,1.53,-32.19,-33.95,0,*71
1508432704.39,43329,17.5,73904.0,1.53,-32.19,-33.95,0,*70
1508432705.64,43330,17.5,73900.0,1.55,-32.13,-33.77,0,*78
1508432706.9,43331,17.5,73906.8,1.55,-32.01,-33.89,0,*7B
1508432708.18,43332,17.5,73900.8,1.55,-31.95,-33.89,0,*76
1508432709.38,43333,17.5,73900.0,1.53,-32.13,-33.95,0,*71
1508432710.64,43334,17.5,73902.0,1.55,-32.01,-33.89,0,*7E
1508432711.87,43335,17.5,73898.0,1.53,-32.01,-33.89,0,*79
1508432713.1,43336,17.5,73902.5,1.53,-32.01,-33.77,0,*7B
1508432714.38,43337,17.5,73898.0,1.55,-31.95,-33.73,0,*76
1508432715.61,43338,17.5,73898.5,1.55,-31.79,-33.55,0,*7F
1508432716.89,43339,17.5,73898.8,1.55,-31.85,-33.61,0,*7A
1508432718.11,43340,17.5,73900.0,1.55,-32.13,-33.95,0,*73
1508432719.36,43341,17.5,73900.8,1.55,-31.79,-33.73,0,*75
1508432720.62,43342,17.5,73900.0,1.55,-31.73,-33.55,0,*78
1508432721.91,43343,17.5,73896.8,1.55,-31.61,-33.43,0,*7D
1508432723.11,43344,17.5,73900.5,1.57,-31.67,-33.37,0,*7D
1508432724.36,43345,17.5,73902.5,1.57,-31.57,-33.31,0,*79
1508432725.56,43346,17.5,73902.5,1.57,-31.79,-33.55,0,*74
1508432726.79,43347,17.5,73902.0,1.59,-31.79,-33.55,0,*7B
1508432728.01,43348,17.5,73902.0,1.57,-31.73,-33.67,0,*71
1508432729.22,43349,17.5,73900.8,1.57,-31.79,-33.67,0,*7A
1508432730.42,43350,17.5,73900.5,1.57,-31.79,-33.67,0,*72
1508432731.62,43351,17.5,73898.3,1.57,-31.79,-33.67,0,*73
1508432732.88,43352,17.5,73894.8,1.59,-31.73,-33.55,0,*75
1508432734.1,43353,17.5,73902.0,1.59,-31.79,-33.55,0,*7E
1508432735.38,43354,17.5,73902.0,1.59,-31.91,-33.73,0,*7B
1508432736.61,43355,17.5,73896.8,1.59,-31.79,-33.67,0,*79
1508432737.84,43356,17.5,73898.5,1.59,-31.79,-33.55,0,*7B
1508432739.07,43357,17.5,73900.5,1.61,-31.85,-33.67,0,*73
1508432740.32,43358,17.5,73900.3,1.61,-31.85,-33.61,0,*7A
1508432741.53,43359,17.5,73900.3,1.61,-32.01,-33.83,0,*78
1508432742.75,43360,17.5,73902.5,1.61,-32.07,-33.95,0,*73
1508432744.01,43361,17.5,73906.3,1.59,-32.13,-34.01,0,*76
1508432745.24,43362,17.5,73904.5,1.61,-32.07,-33.95,0,*71
1508432746.46,43363,17.5,73902.0,1.59,-32.23,-34.07,0,*71
1508432747.71,43364,17.5,73898.3,1.59,-32.29,-34.13,0,*79
1508432748.95,43365,17.5,73898.8,1.59,-32.29,-34.13,0,*78
1508432750.2,43366,17.5,73896.8,1.59,-31.91,-33.83,0,*75
1508432751.46,43367,17.5,73896.3,1.59,-31.95,-33.83,0,*70
1508432752.72,43368,17.5,73898.8,1.61,-32.07,-34.01,0,*71
1508432753.97,43369,17.5,73896.5,1.59,-32.13,-33.89,0,*79
1508432755.19,43370,17.5,73902.8,1.59,-32.13,-34.07,0,*70
1508432756.42,43371,17.5,73900.3,1.59,-32.23,-34.13,0,*77
1508432757.66,43372,17.5,73900.3,1.59,-32.29,-34.07,0,*7B
1508432758.91,43373,17.5,73902.0,1.61,-32.45,-34.31,0,*7E
1508432760.15,43374,17.5,73902.5,1.59,-32.63,-34.41,0,*71
1508432761.38,43375,17.5,73898.8,1.57,-32.63,-34.47,0,*78
1508432762.61,43376,17.5,73898.3,1.57,-32.79,-34.59,0,*7F
1508432763.86,43377,17.5,73902.0,1.59,-32.79,-34.59,0,*70
1508432765.15,43378,17.5,73902.0,1.59,-32.79,-34.65,0,*70
1508432766.4,43379,17.5,73900.5,1.57,-32.79,-34.65,0,*7F
1508432767.69,43380,17.5,73898.8,1.59,-32.79,-34.65,0,*77
1508432768.95,43381,17.5,73898.8,1.57,-32.79,-34.65,0,*78
1508432770.2,43382,17.5,73898.8,1.55,-32.97,-34.71,0,*7C
1508432771.48,43383,17.5,73902.5,1.55,-32.79,-34.65,0,*78
1508432772.77,43384,17.5,73898.8,1.55,-32.79,-34.53,0,*7A
1508432774.01,43385,17.5,73900.0,1.53,-32.63,-34.31,0,*72
1508432775.21,43386,17.5,73900.3,1.53,-32.35,-34.13,0,*72
1508432776.42,43387,17.5,73904.5,1.53,-32.69,-34.47,0,*7B
1508432777.67,43388,17.5,73902.0,1.55,-32.51,-34.35,0,*7C
1508432778.91,43389,17.5,73904.0,1.53,-32.45,-34.19,0,*70
1508432780.14,43390,17.5,73904.8,1.53,-32.19,-34.07,0,*7E
1508432781.36,43391,17.5,73904.3,1.53,-32.51,-34.35,0,*72
1508432782.61,43392,17.5,73904.3,1.55,-32.51,-34.31,0,*73
1508432783.86,43393,17.5,73900.0,1.55,-32.19,-34.13,0,*7E
1508432785.06,43394,17.5,73904.0,1.53,-32.13,-33.95,0,*7C
1508432786.31,43395,17.5,73906.5,1.55,-32.19,-34.13,0,*78
1508432787.56,43396,17.5,73904.0,1.55,-32.29,-34.13,0,*78
1508432788.78,43397,17.5,73904.5,1.55,-32.35,-34.13,0,*74
1508432790.05,43398,17.5,73902.8,1.55,-32.45,-34.19,0,*76
1508432791.3,43399,17.5,73904.3,1.55,-32.29,-34.07,0,*72
1508432792.55,43400,17.5,73902.3,1.57,-32.07,-33.89,0,*7A
1508432793.81,43401,17.5,73902.8,1.55,-32.01,-33.77,0,*7E
1508432795.09,43402,17.5,73896.8,1.55,-31.95,-33.77,0,*73
1508432796.35,43403,17.5,73898.8,1.55,-32.01,-33.89,0,*7D
1508432797.57,43404,17.5,73902.0,1.55,-32.13,-33.95,0,*74
1508432798.83,43405,17.5,73902.5,1.55,-32.19,-34.07,0,*73
1508432800.08,43406,17.5,73896.5,1.55,-32.19,-33.95,0,*7C
1508432801.33,43407,17.5,73900.0,1.55,-32.01,-33.77,0,*78
1508432802.59,43408,17.5,73900.0,1.55,-32.01,-33.77,0,*77
1508432803.82,43409,17.5,73898.0,1.57,-31.95,-33.83,0,*71
1508432805.07,43410,17.5,73902.5,1.57,-31.95,-33.89,0,*73
1508432806.26,43411,17.5,73902.5,1.57,-32.13,-33.83,0,*75
1508432807.46,43412,17.5,73908.3,1.57,-32.23,-34.07,0,*7E
1508432808.71,43413,17.5,73906.0,1.57,-32.07,-34.01,0,*7F
1508432809.99,43414,17.5,73902.5,1.59,-31.95,-33.73,0,*7C
1508432811.22,43415,17.5,73896.8,1.57,-31.79,-33.73,0,*71
1508432812.44,43416,17.5,73906.0,1.57,-32.07,-33.83,0,*77
1508432813.7,43417,17.5,73904.8,1.59,-32.07,-33.83,0,*78
1508432814.95,43418,17.5,73902.0,1.57,-31.91,-33.73,0,*7A
1508432816.17,43419,17.5,73904.5,1.57,-32.07,-33.83,0,*78
1508432817.45,43420,17.5,73902.3,1.59,-32.07,-33.89,0,*76
1508432818.68,43421,17.5,73900.5,1.57,-32.13,-34.01,0,*7B
1508432819.9,43422,17.5,73902.3,1.57,-32.07,-33.83,0,*70
1508432821.12,43423,17.5,73902.3,1.57,-31.91,-33.83,0,*7D
1508432822.34,43424,17.5,73900.3,1.57,-32.29,-34.25,0,*71
1508432823.62,43425,17.5,73900.3,1.59,-32.79,-34.65,0,*7F
1508432824.85,43426,17.5,73902.8,1.57,-32.75,-34.59,0,*71
1508432826.05,43427,17.5,73900.5,1.57,-32.57,-34.47,0,*7F
1508432827.31,43428,17.5,73900.5,1.57,-32.79,-34.65,0,*7C
1508432828.51,43429,17.5,73902.3,1.57,-32.57,-34.47,0,*71
1508432829.73,43430,17.5,73906.8,1.57,-32.63,-34.41,0,*78
1508432830.95,43431,17.5,73906.5,1.57,-32.75,-34.59,0,*77
1508432832.19,43432,17.5,73906.5,1.53,-32.69,-34.53,0,*77
1508432833.44,43433,17.5,73908.0,1.53,-32.85,-34.65,0,*71
1508432834.7,43434,17.5,73902.0,1.55,-32.85,-34.71,0,*75
1508432835.93,43435,17.5,73906.8,1.53,-32.85,-34.71,0,*72
1508432837.18,43436,17.5,73906.3,1.55,-32.19,-34.13,0,*76
1508432838.41,43437,17.5,73902.5,1.53,-32.13,-33.89,0,*7F
1508432839.67,43438,17.5,73902.8,1.55,-32.29,-34.19,0,*71
1508432840.87,43439,17.5,73906.8,1.53,-32.13,-34.07,0,*70
1508432842.09,43440,17.5,73900.5,1.53,-32.35,-34.19,0,*75
1508432843.31,43441,17.5,73906.3,1.55,-32.13,-34.07,0,*79
1508432844.57,43442,17.5,73902.3,1.55,-32.19,-34.13,0,*75
1508432845.84,43443,17.5,73902.3,1.55,-32.19,-34.19,0,*7E
1508432847.05,43444,17.5,73908.0,1.53,-32.51,-34.47,0,*78
1508432848.33,43445,17.5,73908.5,1.55,-32.79,-34.65,0,*75
1508432849.62,43446,17.5,73906.0,1.55,-32.79,-34.65,0,*76
1508432850.85,43447,17.5,73906.0,1.53,-32.85,-34.71,0,*77
1508432852.09,43448,17.5,73910.3,1.53,-32.29,-34.19,0,*70
1508432853.33,43449,17.5,73904.0,1.53,-32.45,-34.31,0,*71
1508432854.57,43450,17.5,73904.0,1.53,-32.69,-34.53,0,*73
1508432855.85,43451,17.5,73908.0,1.55,-32.85,-34.65,0,*73
1508432857.11,43452,17.5,73906.0,1.53,-32.63,-34.53,0,*7B
1508432858.35,43453,17.5,73902.8,1.53,-32.45,-34.35,0,*7E
1508432859.61,43454,17.5,73904.5,1.53,-32.79,-34.53,0,*76
1508432860.83,43455,17.5,73902.0,1.53,-32.29,-34.13,0,*76
1508432862.05,43456,17.5,73906.0,1.53,-32.29,-34.07,0,*70
1508432863.26,43457,17.5,73908.8,1.53,-32.35,-34.31,0,*79
1508432864.48,43458,17.5,73902.0,1.51,-32.39,-34.25,0,*7D
1508432865.73,43459,17.5,73904.8,1.51,-32.35,-34.01,0,*76
1508432867.02,43460,17.5,73904.8,1.51,-32.19,-34.01,0,*72
1508432868.27,43461,17.5,73904.8,1.51,-32.07,-33.95,0,*76
1508432869.52,43462,17.5,73900.3,1.53,-31.95,-33.73,0,*77
1508432870.78,43463,17.5,73896.8,1.53,-31.85,-33.73,0,*77
1508432872.04,43464,17.5,73898.5,1.53,-31.85,-33.73,0,*70
1508432873.29,43465,17.5,73898.0,1.53,-31.85,-33.73,0,*71
1508432874.57,43466,17.5,73900.3,1.55,-31.73,-33.61,0,*7E
1508432875.85,43467,17.5,73902.0,1.55,-31.95,-33.73,0,*74
1508432877.13,43468,17.5,73898.8,1.55,-31.95,-33.73,0,*7B
1508432878.42,43469,17.5,73902.5,1.55,-31.85,-33.73,0,*7B
1508432879.65,43470,17.5,73902.0,1.57,-31.95,-33.67,0,*75
1508432880.9,43471,17.5,73900.5,1.57,-31.95,-33.73,0,*71
1508432882.12,43472,17.5,73900.3,1.57,-31.91,-33.67,0,*73
1508432883.4,43473,17.5,73902.8,1.59,-31.91,-33.73,0,*79
1508432884.63,43474,17.5,73902.8,1.57,-31.73,-33.55,0,*78
1508432885.88,43475,17.5,73898.8,1.59,-31.79,-33.49,0,*70
1508432887.08,43476,17.5,73898.3,1.57,-31.79,-33.67,0,*71
1508432888.33,43477,17.5,73902.0,1.57,-31.95,-33.89,0,*72
1508432889.59,43478,17.5,73904.5,1.57,-32.07,-34.01,0,*72
1508432890.84,43479,17.5,73904.8,1.59,-31.95,-33.83,0,*78
1508432892.12,43480,17.5,73904.3,1.59,-31.95,-33.89,0,*74
1508432893.41,43481,17.5,73906.3,1.59,-32.07,-34.01,0,*7A
1508432894.66,43482,17.5,73900.0,1.59,-32.23,-34.01,0,*7F
1508432895.94,43483,17.5,73900.5,1.59,-31.91,-33.73,0,*76
1508432897.22,43484,17.5,73898.0,1.59,-32.07,-33.73,0,*7D
1508432898.44,43485,17.5,73900.8,1.57,-32.29,-34.13,0,*7F
1508432899.71,43486,17.5,73900.5,1.59,-32.29,-34.31,0,*72
1508432900.93,43487,17.5,73900.8,1.59,-32.57,-34.25,0,*7F
1508432902.18,43488,17.5,73906.5,1.59,-32.63,-34.47,0,*73
1508432903.41,43489,17.5,73906.5,1.57,-32.79,-34.47,0,*77
1508432904.65,43490,17.5,73900.3,1.59,-32.57,-34.47,0,*7D
1508432905.87,43491,17.5,73898.8,1.59,-32.57,-34.41,0,*7A
1508432907.09,43492,17.5,73904.3,1.57,-32.39,-34.31,0,*78
1508432908.32,43493,17.5,73906.0,1.59,-32.57,-34.47,0,*7E
1508432909.54,43494,17.5,73902.8,1.57,-32.63,-34.59,0,*7F
1508432910.77,43495,17.5,73906.3,1.57,-32.79,-34.77,0,*79